Year,Month,Day,Hour,Minute,Value (Times are PST for temperature in C)
2012,07,14,01,14,11.20
2012,07,14,01,15,11.20
2012,07,14,01,16,11.20
2012,07,14,01,17,11.20
2012,07,14,01,18,11.20
2012,07,14,01,19,11.20
2012,07,14,01,20,11.20
2012,07,14,01,21,11.20
2012,07,14,01,22,11.20
2012,07,14,01,23,11.20
2012,07,14,01,24,11.20
2012,07,14,01,25,11.20
2012,07,14,01,26,11.20
2012,07,14,01,27,11.20
2012,07,14,01,28,11.20
2012,07,14,01,29,11.20
2012,07,14,01,30,11.20
2012,07,14,01,31,11.20
2012,07,14,01,32,11.20
2012,07,14,01,33,11.20
2012,07,14,01,34,11.20
2012,07,14,01,35,11.20
2012,07,14,01,36,11.20
2012,07,14,01,37,11.20
2012,07,14,01,38,11.20
2012,07,14,01,39,11.20
2012,07,14,01,40,11.20
2012,07,14,01,41,11.20
2012,07,14,01,42,11.20
2012,07,14,01,43,11.20
2012,07,14,01,44,11.10
2012,07,14,01,45,11.10
2012,07,14,01,46,11.10
2012,07,14,01,47,11.10
2012,07,14,01,48,11.10
2012,07,14,01,49,11.10
2012,07,14,01,50,11.10
2012,07,14,01,51,11.10
2012,07,14,01,52,11.10
2012,07,14,01,53,11.10
2012,07,14,01,54,11.10
2012,07,14,01,55,11.10
2012,07,14,01,56,11.10
2012,07,14,01,57,11.10
2012,07,14,01,58,11.10
2012,07,14,01,59,11.10
2012,07,14,02,00,11.10
2012,07,14,02,01,11.10
2012,07,14,02,02,11.10
2012,07,14,02,03,11.10
2012,07,14,02,04,11.10
2012,07,14,02,05,11.10
2012,07,14,02,06,11.10
2012,07,14,02,07,11.10
2012,07,14,02,08,11.10
2012,07,14,02,09,11.10
2012,07,14,02,10,11.10
2012,07,14,02,11,11.10
2012,07,14,02,12,11.10
2012,07,14,02,13,11.10
2012,07,14,02,14,11.00
2012,07,14,02,15,11.00
2012,07,14,02,16,11.00
2012,07,14,02,17,11.00
2012,07,14,02,18,11.00
2012,07,14,02,19,11.00
2012,07,14,02,20,11.00
2012,07,14,02,21,11.00
2012,07,14,02,22,11.00
2012,07,14,02,23,11.00
2012,07,14,02,24,11.00
2012,07,14,02,25,11.00
2012,07,14,02,26,11.00
2012,07,14,02,27,11.00
2012,07,14,02,28,11.00
2012,07,14,02,29,10.80
2012,07,14,02,30,10.80
2012,07,14,02,31,10.80
2012,07,14,02,32,10.80
2012,07,14,02,33,10.80
2012,07,14,02,34,10.80
2012,07,14,02,35,10.80
2012,07,14,02,36,10.80
2012,07,14,02,37,10.80
2012,07,14,02,38,10.80
2012,07,14,02,39,10.80
2012,07,14,02,40,10.80
2012,07,14,02,41,10.80
2012,07,14,02,42,10.80
2012,07,14,02,43,10.80
2012,07,14,02,44,10.80
2012,07,14,02,45,10.80
2012,07,14,02,46,10.80
2012,07,14,02,47,10.80
2012,07,14,02,48,10.80
2012,07,14,02,49,10.80
2012,07,14,02,50,10.80
2012,07,14,02,51,10.80
2012,07,14,02,52,10.80
2012,07,14,02,53,10.80
2012,07,14,02,54,10.80
2012,07,14,02,55,10.80
2012,07,14,02,56,10.80
2012,07,14,02,57,10.80
2012,07,14,02,58,10.80
2012,07,14,02,59,10.80
2012,07,14,03,00,10.80
2012,07,14,03,01,10.80
2012,07,14,03,02,10.80
2012,07,14,03,03,10.80
2012,07,14,03,04,10.80
2012,07,14,03,05,10.80
2012,07,14,03,06,10.80
2012,07,14,03,07,10.80
2012,07,14,03,08,10.80
2012,07,14,03,09,10.80
2012,07,14,03,10,10.80
2012,07,14,03,11,10.80
2012,07,14,03,12,10.80
2012,07,14,03,13,10.80
2012,07,14,03,14,10.70
2012,07,14,03,15,10.70
2012,07,14,03,16,10.70
2012,07,14,03,17,10.70
2012,07,14,03,18,10.70
2012,07,14,03,19,10.70
2012,07,14,03,20,10.70
2012,07,14,03,21,10.70
2012,07,14,03,22,10.70
2012,07,14,03,23,10.70
2012,07,14,03,24,10.70
2012,07,14,03,25,10.70
2012,07,14,03,26,10.70
2012,07,14,03,27,10.70
2012,07,14,03,28,10.70
2012,07,14,03,29,10.80
2012,07,14,03,30,10.80
2012,07,14,03,31,10.80
2012,07,14,03,32,10.80
2012,07,14,03,33,10.80
2012,07,14,03,34,10.80
2012,07,14,03,35,10.80
2012,07,14,03,36,10.80
2012,07,14,03,37,10.80
2012,07,14,03,38,10.80
2012,07,14,03,39,10.80
2012,07,14,03,40,10.80
2012,07,14,03,41,10.80
2012,07,14,03,42,10.80
2012,07,14,03,43,10.80
2012,07,14,03,44,10.80
2012,07,14,03,45,10.80
2012,07,14,03,46,10.80
2012,07,14,03,47,10.80
2012,07,14,03,48,10.80
2012,07,14,03,49,10.80
2012,07,14,03,50,10.80
2012,07,14,03,51,10.80
2012,07,14,03,52,10.80
2012,07,14,03,53,10.80
2012,07,14,03,54,10.80
2012,07,14,03,55,10.80
2012,07,14,03,56,10.80
2012,07,14,03,57,10.80
2012,07,14,03,58,10.80
2012,07,14,03,59,10.80
2012,07,14,04,00,10.80
2012,07,14,04,01,10.80
2012,07,14,04,02,10.80
2012,07,14,04,03,10.80
2012,07,14,04,04,10.80
2012,07,14,04,05,10.80
2012,07,14,04,06,10.80
2012,07,14,04,07,10.80
2012,07,14,04,08,10.80
2012,07,14,04,09,10.80
2012,07,14,04,10,10.80
2012,07,14,04,11,10.80
2012,07,14,04,12,10.80
2012,07,14,04,13,10.80
2012,07,14,04,14,10.70
2012,07,14,04,15,10.70
2012,07,14,04,16,10.70
2012,07,14,04,17,10.70
2012,07,14,04,18,10.70
2012,07,14,04,19,10.70
2012,07,14,04,20,10.70
2012,07,14,04,21,10.70
2012,07,14,04,22,10.70
2012,07,14,04,23,10.70
2012,07,14,04,24,10.70
2012,07,14,04,25,10.70
2012,07,14,04,26,10.70
2012,07,14,04,27,10.70
2012,07,14,04,28,10.70
2012,07,14,04,29,10.70
2012,07,14,04,30,10.70
2012,07,14,04,31,10.70
2012,07,14,04,32,10.70
2012,07,14,04,33,10.70
2012,07,14,04,34,10.70
2012,07,14,04,35,10.70
2012,07,14,04,36,10.70
2012,07,14,04,37,10.70
2012,07,14,04,38,10.70
2012,07,14,04,39,10.70
2012,07,14,04,40,10.70
2012,07,14,04,41,10.70
2012,07,14,04,42,10.70
2012,07,14,04,43,10.70
2012,07,14,04,44,10.70
2012,07,14,04,45,10.70
2012,07,14,04,46,10.70
2012,07,14,04,47,10.70
2012,07,14,04,48,10.70
2012,07,14,04,49,10.70
2012,07,14,04,50,10.70
2012,07,14,04,51,10.70
2012,07,14,04,52,10.70
2012,07,14,04,53,10.70
2012,07,14,04,54,10.70
2012,07,14,04,55,10.70
2012,07,14,04,56,10.70
2012,07,14,04,57,10.70
2012,07,14,04,58,10.70
2012,07,14,04,59,10.60
2012,07,14,05,00,10.60
2012,07,14,05,01,10.60
2012,07,14,05,02,10.60
2012,07,14,05,03,10.60
2012,07,14,05,04,10.60
2012,07,14,05,05,10.60
2012,07,14,05,06,10.60
2012,07,14,05,07,10.60
2012,07,14,05,08,10.60
2012,07,14,05,09,10.60
2012,07,14,05,10,10.60
2012,07,14,05,11,10.60
2012,07,14,05,12,10.60
2012,07,14,05,13,10.60
2012,07,14,05,14,10.70
2012,07,14,05,15,10.70
2012,07,14,05,16,10.70
2012,07,14,05,17,10.70
2012,07,14,05,18,10.70
2012,07,14,05,19,10.70
2012,07,14,05,20,10.70
2012,07,14,05,21,10.70
2012,07,14,05,22,10.70
2012,07,14,05,23,10.70
2012,07,14,05,24,10.70
2012,07,14,05,25,10.70
2012,07,14,05,26,10.70
2012,07,14,05,27,10.70
2012,07,14,05,28,10.70
2012,07,14,05,29,10.70
2012,07,14,05,30,10.70
2012,07,14,05,31,10.70
2012,07,14,05,32,10.70
2012,07,14,05,33,10.70
2012,07,14,05,34,10.70
2012,07,14,05,35,10.70
2012,07,14,05,36,10.70
2012,07,14,05,37,10.70
2012,07,14,05,38,10.70
2012,07,14,05,39,10.70
2012,07,14,05,40,10.70
2012,07,14,05,41,10.70
2012,07,14,05,42,10.70
2012,07,14,05,43,10.70
2012,07,14,05,44,10.70
2012,07,14,05,45,10.70
2012,07,14,05,46,10.70
2012,07,14,05,47,10.70
2012,07,14,05,48,10.70
2012,07,14,05,49,10.70
2012,07,14,05,50,10.70
2012,07,14,05,51,10.70
2012,07,14,05,52,10.70
2012,07,14,05,53,10.70
2012,07,14,05,54,10.70
2012,07,14,05,55,10.70
2012,07,14,05,56,10.70
2012,07,14,05,57,10.70
2012,07,14,05,58,10.70
2012,07,14,05,59,10.60
2012,07,14,06,00,10.60
2012,07,14,06,01,10.60
2012,07,14,06,02,10.60
2012,07,14,06,03,10.60
2012,07,14,06,04,10.60
2012,07,14,06,05,10.60
2012,07,14,06,06,10.60
2012,07,14,06,07,10.60
2012,07,14,06,08,10.60
2012,07,14,06,09,10.60
2012,07,14,06,10,10.60
2012,07,14,06,11,10.60
2012,07,14,06,12,10.60
2012,07,14,06,13,10.60
2012,07,14,06,14,10.60
2012,07,14,06,15,10.60
2012,07,14,06,16,10.60
2012,07,14,06,17,10.60
2012,07,14,06,18,10.60
2012,07,14,06,19,10.60
2012,07,14,06,20,10.60
2012,07,14,06,21,10.60
2012,07,14,06,22,10.60
2012,07,14,06,23,10.60
2012,07,14,06,24,10.60
2012,07,14,06,25,10.60
2012,07,14,06,26,10.60
2012,07,14,06,27,10.60
2012,07,14,06,28,10.60
2012,07,14,06,29,10.60
2012,07,14,06,30,10.60
2012,07,14,06,31,10.60
2012,07,14,06,32,10.60
2012,07,14,06,33,10.60
2012,07,14,06,34,10.60
2012,07,14,06,35,10.60
2012,07,14,06,36,10.60
2012,07,14,06,37,10.60
2012,07,14,06,38,10.60
2012,07,14,06,39,10.60
2012,07,14,06,40,10.60
2012,07,14,06,41,10.60
2012,07,14,06,42,10.60
2012,07,14,06,43,10.60
2012,07,14,06,44,10.60
2012,07,14,06,45,10.60
2012,07,14,06,46,10.60
2012,07,14,06,47,10.60
2012,07,14,06,48,10.60
2012,07,14,06,49,10.60
2012,07,14,06,50,10.60
2012,07,14,06,51,10.60
2012,07,14,06,52,10.60
2012,07,14,06,53,10.60
2012,07,14,06,54,10.60
2012,07,14,06,55,10.60
2012,07,14,06,56,10.60
2012,07,14,06,57,10.60
2012,07,14,06,58,10.60
2012,07,14,06,59,10.60
2012,07,14,07,00,10.60
2012,07,14,07,01,10.60
2012,07,14,07,02,10.60
2012,07,14,07,03,10.60
2012,07,14,07,04,10.60
2012,07,14,07,05,10.60
2012,07,14,07,06,10.60
2012,07,14,07,07,10.60
2012,07,14,07,08,10.60
2012,07,14,07,09,10.60
2012,07,14,07,10,10.60
2012,07,14,07,11,10.60
2012,07,14,07,12,10.60
2012,07,14,07,13,10.60
2012,07,14,07,14,10.60
2012,07,14,07,15,10.60
2012,07,14,07,16,10.60
2012,07,14,07,17,10.60
2012,07,14,07,18,10.60
2012,07,14,07,19,10.60
2012,07,14,07,20,10.60
2012,07,14,07,21,10.60
2012,07,14,07,22,10.60
2012,07,14,07,23,10.60
2012,07,14,07,24,10.60
2012,07,14,07,25,10.60
2012,07,14,07,26,10.60
2012,07,14,07,27,10.60
2012,07,14,07,28,10.60
2012,07,14,07,29,10.70
2012,07,14,07,30,10.70
2012,07,14,07,31,10.70
2012,07,14,07,32,10.70
2012,07,14,07,33,10.70
2012,07,14,07,34,10.70
2012,07,14,07,35,10.70
2012,07,14,07,36,10.70
2012,07,14,07,37,10.70
2012,07,14,07,38,10.70
2012,07,14,07,39,10.70
2012,07,14,07,40,10.70
2012,07,14,07,41,10.70
2012,07,14,07,42,10.70
2012,07,14,07,43,10.70
2012,07,14,07,44,10.80
2012,07,14,07,45,10.80
2012,07,14,07,46,10.80
2012,07,14,07,47,10.80
2012,07,14,07,48,10.80
2012,07,14,07,49,10.80
2012,07,14,07,50,10.80
2012,07,14,07,51,10.80
2012,07,14,07,52,10.80
2012,07,14,07,53,10.80
2012,07,14,07,54,10.80
2012,07,14,07,55,10.80
2012,07,14,07,56,10.80
2012,07,14,07,57,10.80
2012,07,14,07,58,10.80
2012,07,14,07,59,10.70
2012,07,14,08,00,10.70
2012,07,14,08,01,10.70
2012,07,14,08,02,10.70
2012,07,14,08,03,10.70
2012,07,14,08,04,10.70
2012,07,14,08,05,10.70
2012,07,14,08,06,10.70
2012,07,14,08,07,10.70
2012,07,14,08,08,10.70
2012,07,14,08,09,10.70
2012,07,14,08,10,10.70
2012,07,14,08,11,10.70
2012,07,14,08,12,10.70
2012,07,14,08,13,10.70
2012,07,14,08,14,10.80
2012,07,14,08,15,10.80
2012,07,14,08,16,10.80
2012,07,14,08,17,10.80
2012,07,14,08,18,10.80
2012,07,14,08,19,10.80
2012,07,14,08,20,10.80
2012,07,14,08,21,10.80
2012,07,14,08,22,10.80
2012,07,14,08,23,10.80
2012,07,14,08,24,10.80
2012,07,14,08,25,10.80
2012,07,14,08,26,10.80
2012,07,14,08,27,10.80
2012,07,14,08,28,10.80
2012,07,14,08,29,10.70
2012,07,14,08,30,10.70
2012,07,14,08,31,10.70
2012,07,14,08,32,10.70
2012,07,14,08,33,10.70
2012,07,14,08,34,10.70
2012,07,14,08,35,10.70
2012,07,14,08,36,10.70
2012,07,14,08,37,10.70
2012,07,14,08,38,10.70
2012,07,14,08,39,10.70
2012,07,14,08,40,10.70
2012,07,14,08,41,10.70
2012,07,14,08,42,10.70
2012,07,14,08,43,10.70
2012,07,14,08,44,10.80
2012,07,14,08,45,10.80
2012,07,14,08,46,10.80
2012,07,14,08,47,10.80
2012,07,14,08,48,10.80
2012,07,14,08,49,10.80
2012,07,14,08,50,10.80
2012,07,14,08,51,10.80
2012,07,14,08,52,10.80
2012,07,14,08,53,10.80
2012,07,14,08,54,10.80
2012,07,14,08,55,10.80
2012,07,14,08,56,10.80
2012,07,14,08,57,10.80
2012,07,14,08,58,10.80
2012,07,14,08,59,11.10
2012,07,14,09,00,11.10
2012,07,14,09,01,11.10
2012,07,14,09,02,11.10
2012,07,14,09,03,11.10
2012,07,14,09,04,11.10
2012,07,14,09,05,11.10
2012,07,14,09,06,11.10
2012,07,14,09,07,11.10
2012,07,14,09,08,11.10
2012,07,14,09,09,11.10
2012,07,14,09,10,11.10
2012,07,14,09,11,11.10
2012,07,14,09,12,11.10
2012,07,14,09,13,11.10
2012,07,14,09,14,11.40
2012,07,14,09,15,11.40
2012,07,14,09,16,11.40
2012,07,14,09,17,11.40
2012,07,14,09,18,11.40
2012,07,14,09,19,11.40
2012,07,14,09,20,11.40
2012,07,14,09,21,11.40
2012,07,14,09,22,11.40
2012,07,14,09,23,11.40
2012,07,14,09,24,11.40
2012,07,14,09,25,11.40
2012,07,14,09,26,11.40
2012,07,14,09,27,11.40
2012,07,14,09,28,11.40
2012,07,14,09,29,11.10
2012,07,14,09,30,11.10
2012,07,14,09,31,11.10
2012,07,14,09,32,11.10
2012,07,14,09,33,11.10
2012,07,14,09,34,11.10
2012,07,14,09,35,11.10
2012,07,14,09,36,11.10
2012,07,14,09,37,11.10
2012,07,14,09,38,11.10
2012,07,14,09,39,11.10
2012,07,14,09,40,11.10
2012,07,14,09,41,11.10
2012,07,14,09,42,11.10
2012,07,14,09,43,11.10
2012,07,14,09,44,10.80
2012,07,14,09,45,10.80
2012,07,14,09,46,10.80
2012,07,14,09,47,10.80
2012,07,14,09,48,10.80
2012,07,14,09,49,10.80
2012,07,14,09,50,10.80
2012,07,14,09,51,10.80
2012,07,14,09,52,10.80
2012,07,14,09,53,10.80
2012,07,14,09,54,10.80
2012,07,14,09,55,10.80
2012,07,14,09,56,10.80
2012,07,14,09,57,10.80
2012,07,14,09,58,10.80
2012,07,14,09,59,10.90
2012,07,14,10,00,10.90
2012,07,14,10,01,10.90
2012,07,14,10,02,10.90
2012,07,14,10,03,10.90
2012,07,14,10,04,10.90
2012,07,14,10,05,10.90
2012,07,14,10,06,10.90
2012,07,14,10,07,10.90
2012,07,14,10,08,10.90
2012,07,14,10,09,10.90
2012,07,14,10,10,10.90
2012,07,14,10,11,10.90
2012,07,14,10,12,10.90
2012,07,14,10,13,10.90
2012,07,14,10,14,11.10
2012,07,14,10,15,11.10
2012,07,14,10,16,11.10
2012,07,14,10,17,11.10
2012,07,14,10,18,11.10
2012,07,14,10,19,11.10
2012,07,14,10,20,11.10
2012,07,14,10,21,11.10
2012,07,14,10,22,11.10
2012,07,14,10,23,11.10
2012,07,14,10,24,11.10
2012,07,14,10,25,11.10
2012,07,14,10,26,11.10
2012,07,14,10,27,11.10
2012,07,14,10,28,11.10
2012,07,14,10,29,11.40
2012,07,14,10,30,11.40
2012,07,14,10,31,11.40
2012,07,14,10,32,11.40
2012,07,14,10,33,11.40
2012,07,14,10,34,11.40
2012,07,14,10,35,11.40
2012,07,14,10,36,11.40
2012,07,14,10,37,11.40
2012,07,14,10,38,11.40
2012,07,14,10,39,11.40
2012,07,14,10,40,11.40
2012,07,14,10,41,11.40
2012,07,14,10,42,11.40
2012,07,14,10,43,11.40
2012,07,14,10,44,11.50
2012,07,14,10,45,11.50
2012,07,14,10,46,11.50
2012,07,14,10,47,11.50
2012,07,14,10,48,11.50
2012,07,14,10,49,11.50
2012,07,14,10,50,11.50
2012,07,14,10,51,11.50
2012,07,14,10,52,11.50
2012,07,14,10,53,11.50
2012,07,14,10,54,11.50
2012,07,14,10,55,11.50
2012,07,14,10,56,11.50
2012,07,14,10,57,11.50
2012,07,14,10,58,11.50
2012,07,14,10,59,11.30
2012,07,14,11,00,11.30
2012,07,14,11,01,11.30
2012,07,14,11,02,11.30
2012,07,14,11,03,11.30
2012,07,14,11,04,11.30
2012,07,14,11,05,11.30
2012,07,14,11,06,11.30
2012,07,14,11,07,11.30
2012,07,14,11,08,11.30
2012,07,14,11,09,11.30
2012,07,14,11,10,11.30
2012,07,14,11,11,11.30
2012,07,14,11,12,11.30
2012,07,14,11,13,11.30
2012,07,14,11,14,11.40
2012,07,14,11,15,11.40
2012,07,14,11,16,11.40
2012,07,14,11,17,11.40
2012,07,14,11,18,11.40
2012,07,14,11,19,11.40
2012,07,14,11,20,11.40
2012,07,14,11,21,11.40
2012,07,14,11,22,11.40
2012,07,14,11,23,11.40
2012,07,14,11,24,11.40
2012,07,14,11,25,11.40
2012,07,14,11,26,11.40
2012,07,14,11,27,11.40
2012,07,14,11,28,11.40
2012,07,14,11,29,12.10
2012,07,14,11,30,12.10
2012,07,14,11,31,12.10
2012,07,14,11,32,12.10
2012,07,14,11,33,12.10
2012,07,14,11,34,12.10
2012,07,14,11,35,12.10
2012,07,14,11,36,12.10
2012,07,14,11,37,12.10
2012,07,14,11,38,12.10
2012,07,14,11,39,12.10
2012,07,14,11,40,12.10
2012,07,14,11,41,12.10
2012,07,14,11,42,12.10
2012,07,14,11,43,12.10
2012,07,14,11,44,11.40
2012,07,14,11,45,11.40
2012,07,14,11,46,11.40
2012,07,14,11,47,11.40
2012,07,14,11,48,11.40
2012,07,14,11,49,11.40
2012,07,14,11,50,11.40
2012,07,14,11,51,11.40
2012,07,14,11,52,11.40
2012,07,14,11,53,11.40
2012,07,14,11,54,11.40
2012,07,14,11,55,11.40
2012,07,14,11,56,11.40
2012,07,14,11,57,11.40
2012,07,14,11,58,11.40
2012,07,14,11,59,11.60
2012,07,14,12,00,11.60
2012,07,14,12,01,11.60
2012,07,14,12,02,11.60
2012,07,14,12,03,11.60
2012,07,14,12,04,11.60
2012,07,14,12,05,11.60
2012,07,14,12,06,11.60
2012,07,14,12,07,11.60
2012,07,14,12,08,11.60
2012,07,14,12,09,11.60
2012,07,14,12,10,11.60
2012,07,14,12,11,11.60
2012,07,14,12,12,11.60
2012,07,14,12,13,11.60
2012,07,14,12,14,11.80
2012,07,14,12,15,11.80
2012,07,14,12,16,11.80
2012,07,14,12,17,11.80
2012,07,14,12,18,11.80
2012,07,14,12,19,11.80
2012,07,14,12,20,11.80
2012,07,14,12,21,11.80
2012,07,14,12,22,11.80
2012,07,14,12,23,11.80
2012,07,14,12,24,11.80
2012,07,14,12,25,11.80
2012,07,14,12,26,11.80
2012,07,14,12,27,11.80
2012,07,14,12,28,11.80
2012,07,14,12,29,11.60
2012,07,14,12,30,11.60
2012,07,14,12,31,11.60
2012,07,14,12,32,11.60
2012,07,14,12,33,11.60
2012,07,14,12,34,11.60
2012,07,14,12,35,11.60
2012,07,14,12,36,11.60
2012,07,14,12,37,11.60
2012,07,14,12,38,11.60
2012,07,14,12,39,11.60
2012,07,14,12,40,11.60
2012,07,14,12,41,11.60
2012,07,14,12,42,11.60
2012,07,14,12,43,11.60
2012,07,14,12,44,11.60
2012,07,14,12,45,11.60
2012,07,14,12,46,11.60
2012,07,14,12,47,11.60
2012,07,14,12,48,11.60
2012,07,14,12,49,11.60
2012,07,14,12,50,11.60
2012,07,14,12,51,11.60
2012,07,14,12,52,11.60
2012,07,14,12,53,11.60
2012,07,14,12,54,11.60
2012,07,14,12,55,11.60
2012,07,14,12,56,11.60
2012,07,14,12,57,11.60
2012,07,14,12,58,11.60
2012,07,14,12,59,11.70
2012,07,14,13,00,11.70
2012,07,14,13,01,11.70
2012,07,14,13,02,11.70
2012,07,14,13,03,11.70
2012,07,14,13,04,11.70
2012,07,14,13,05,11.70
2012,07,14,13,06,11.70
2012,07,14,13,07,11.70
2012,07,14,13,08,11.70
2012,07,14,13,09,11.70
2012,07,14,13,10,11.70
2012,07,14,13,11,11.70
2012,07,14,13,12,11.70
2012,07,14,13,13,11.70
2012,07,14,13,14,12.30
2012,07,14,13,15,12.30
2012,07,14,13,16,12.30
2012,07,14,13,17,12.30
2012,07,14,13,18,12.30
2012,07,14,13,19,12.30
2012,07,14,13,20,12.30
2012,07,14,13,21,12.30
2012,07,14,13,22,12.30
2012,07,14,13,23,12.30
2012,07,14,13,24,12.30
2012,07,14,13,25,12.30
2012,07,14,13,26,12.30
2012,07,14,13,27,12.30
2012,07,14,13,28,12.30
2012,07,14,13,29,12.60
2012,07,14,13,30,12.60
2012,07,14,13,31,12.60
2012,07,14,13,32,12.60
2012,07,14,13,33,12.60
2012,07,14,13,34,12.60
2012,07,14,13,35,12.60
2012,07,14,13,36,12.60
2012,07,14,13,37,12.60
2012,07,14,13,38,12.60
2012,07,14,13,39,12.60
2012,07,14,13,40,12.60
2012,07,14,13,41,12.60
2012,07,14,13,42,12.60
2012,07,14,13,43,12.60
2012,07,14,13,44,13.10
2012,07,14,13,45,13.10
2012,07,14,13,46,13.10
2012,07,14,13,47,13.10
2012,07,14,13,48,13.10
2012,07,14,13,49,13.10
2012,07,14,13,50,13.10
2012,07,14,13,51,13.10
2012,07,14,13,52,13.10
2012,07,14,13,53,13.10
2012,07,14,13,54,13.10
2012,07,14,13,55,13.10
2012,07,14,13,56,13.10
2012,07,14,13,57,13.10
2012,07,14,13,58,13.10
2012,07,14,13,59,13.10
2012,07,14,14,00,13.10
2012,07,14,14,01,13.10
2012,07,14,14,02,13.10
2012,07,14,14,03,13.10
2012,07,14,14,04,13.10
2012,07,14,14,05,13.10
2012,07,14,14,06,13.10
2012,07,14,14,07,13.10
2012,07,14,14,08,13.10
2012,07,14,14,09,13.10
2012,07,14,14,10,13.10
2012,07,14,14,11,13.10
2012,07,14,14,12,13.10
2012,07,14,14,13,13.10
2012,07,14,14,14,13.10
2012,07,14,14,15,13.10
2012,07,14,14,16,13.10
2012,07,14,14,17,13.10
2012,07,14,14,18,13.10
2012,07,14,14,19,13.10
2012,07,14,14,20,13.10
2012,07,14,14,21,13.10
2012,07,14,14,22,13.10
2012,07,14,14,23,13.10
2012,07,14,14,24,13.10
2012,07,14,14,25,13.10
2012,07,14,14,26,13.10
2012,07,14,14,27,13.10
2012,07,14,14,28,13.10
2012,07,14,14,29,13.10
2012,07,14,14,30,13.10
2012,07,14,14,31,13.10
2012,07,14,14,32,13.10
2012,07,14,14,33,13.10
2012,07,14,14,34,13.10
2012,07,14,14,35,13.10
2012,07,14,14,36,13.10
2012,07,14,14,37,13.10
2012,07,14,14,38,13.10
2012,07,14,14,39,13.10
2012,07,14,14,40,13.10
2012,07,14,14,41,13.10
2012,07,14,14,42,13.10
2012,07,14,14,43,13.10
2012,07,14,14,44,13.00
2012,07,14,14,45,13.00
2012,07,14,14,46,13.00
2012,07,14,14,47,13.00
2012,07,14,14,48,13.00
2012,07,14,14,49,13.00
2012,07,14,14,50,13.00
2012,07,14,14,51,13.00
2012,07,14,14,52,13.00
2012,07,14,14,53,13.00
2012,07,14,14,54,13.00
2012,07,14,14,55,13.00
2012,07,14,14,56,13.00
2012,07,14,14,57,13.00
2012,07,14,14,58,13.00
2012,07,14,14,59,13.20
2012,07,14,15,00,13.20
2012,07,14,15,01,13.20
2012,07,14,15,02,13.20
2012,07,14,15,03,13.20
2012,07,14,15,04,13.20
2012,07,14,15,05,13.20
2012,07,14,15,06,13.20
2012,07,14,15,07,13.20
2012,07,14,15,08,13.20
2012,07,14,15,09,13.20
2012,07,14,15,10,13.20
2012,07,14,15,11,13.20
2012,07,14,15,12,13.20
2012,07,14,15,13,13.20
2012,07,14,15,14,13.70
2012,07,14,15,15,13.70
2012,07,14,15,16,13.70
2012,07,14,15,17,13.70
2012,07,14,15,18,13.70
2012,07,14,15,19,13.70
2012,07,14,15,20,13.70
2012,07,14,15,21,13.70
2012,07,14,15,22,13.70
2012,07,14,15,23,13.70
2012,07,14,15,24,13.70
2012,07,14,15,25,13.70
2012,07,14,15,26,13.70
2012,07,14,15,27,13.70
2012,07,14,15,28,13.70
2012,07,14,15,29,13.70
2012,07,14,15,30,13.70
2012,07,14,15,31,13.70
2012,07,14,15,32,13.70
2012,07,14,15,33,13.70
2012,07,14,15,34,13.70
2012,07,14,15,35,13.70
2012,07,14,15,36,13.70
2012,07,14,15,37,13.70
2012,07,14,15,38,13.70
2012,07,14,15,39,13.70
2012,07,14,15,40,13.70
2012,07,14,15,41,13.70
2012,07,14,15,42,13.70
2012,07,14,15,43,13.70
2012,07,14,15,44,13.40
2012,07,14,15,45,13.40
2012,07,14,15,46,13.40
2012,07,14,15,47,13.40
2012,07,14,15,48,13.40
2012,07,14,15,49,13.40
2012,07,14,15,50,13.40
2012,07,14,15,51,13.40
2012,07,14,15,52,13.40
2012,07,14,15,53,13.40
2012,07,14,15,54,13.40
2012,07,14,15,55,13.40
2012,07,14,15,56,13.40
2012,07,14,15,57,13.40
2012,07,14,15,58,13.40
2012,07,14,15,59,13.30
2012,07,14,16,00,13.30
2012,07,14,16,01,13.30
2012,07,14,16,02,13.30
2012,07,14,16,03,13.30
2012,07,14,16,04,13.30
2012,07,14,16,05,13.30
2012,07,14,16,06,13.30
2012,07,14,16,07,13.30
2012,07,14,16,08,13.30
2012,07,14,16,09,13.30
2012,07,14,16,10,13.30
2012,07,14,16,11,13.30
2012,07,14,16,12,13.30
2012,07,14,16,13,13.30
2012,07,14,16,14,13.20
2012,07,14,16,15,13.20
2012,07,14,16,16,13.20
2012,07,14,16,17,13.20
2012,07,14,16,18,13.20
2012,07,14,16,19,13.20
2012,07,14,16,20,13.20
2012,07,14,16,21,13.20
2012,07,14,16,22,13.20
2012,07,14,16,23,13.20
2012,07,14,16,24,13.20
2012,07,14,16,25,13.20
2012,07,14,16,26,13.20
2012,07,14,16,27,13.20
2012,07,14,16,28,13.20
2012,07,14,16,29,12.90
2012,07,14,16,30,12.90
2012,07,14,16,31,12.90
2012,07,14,16,32,12.90
2012,07,14,16,33,12.90
2012,07,14,16,34,12.90
2012,07,14,16,35,12.90
2012,07,14,16,36,12.90
2012,07,14,16,37,12.90
2012,07,14,16,38,12.90
2012,07,14,16,39,12.90
2012,07,14,16,40,12.90
2012,07,14,16,41,12.90
2012,07,14,16,42,12.90
2012,07,14,16,43,12.90
2012,07,14,16,44,12.90
2012,07,14,16,45,12.90
2012,07,14,16,46,12.90
2012,07,14,16,47,12.90
2012,07,14,16,48,12.90
2012,07,14,16,49,12.90
2012,07,14,16,50,12.90
2012,07,14,16,51,12.90
2012,07,14,16,52,12.90
2012,07,14,16,53,12.90
2012,07,14,16,54,12.90
2012,07,14,16,55,12.90
2012,07,14,16,56,12.90
2012,07,14,16,57,12.90
2012,07,14,16,58,12.90
2012,07,14,16,59,13.00
2012,07,14,17,00,13.00
2012,07,14,17,01,13.00
2012,07,14,17,02,13.00
2012,07,14,17,03,13.00
2012,07,14,17,04,13.00
2012,07,14,17,05,13.00
2012,07,14,17,06,13.00
2012,07,14,17,07,13.00
2012,07,14,17,08,13.00
2012,07,14,17,09,13.00
2012,07,14,17,10,13.00
2012,07,14,17,11,13.00
2012,07,14,17,12,13.00
2012,07,14,17,13,13.00
2012,07,14,17,14,12.80
2012,07,14,17,15,12.80
2012,07,14,17,16,12.80
2012,07,14,17,17,12.80
2012,07,14,17,18,12.80
2012,07,14,17,19,12.80
2012,07,14,17,20,12.80
2012,07,14,17,21,12.80
2012,07,14,17,22,12.80
2012,07,14,17,23,12.80
2012,07,14,17,24,12.80
2012,07,14,17,25,12.80
2012,07,14,17,26,12.80
2012,07,14,17,27,12.80
2012,07,14,17,28,12.80
2012,07,14,17,29,12.80
2012,07,14,17,30,12.80
2012,07,14,17,31,12.80
2012,07,14,17,32,12.80
2012,07,14,17,33,12.80
2012,07,14,17,34,12.80
2012,07,14,17,35,12.80
2012,07,14,17,36,12.80
2012,07,14,17,37,12.80
2012,07,14,17,38,12.80
2012,07,14,17,39,12.80
2012,07,14,17,40,12.80
2012,07,14,17,41,12.80
2012,07,14,17,42,12.80
2012,07,14,17,43,12.80
2012,07,14,17,44,12.80
2012,07,14,17,45,12.80
2012,07,14,17,46,12.80
2012,07,14,17,47,12.80
2012,07,14,17,48,12.80
2012,07,14,17,49,12.80
2012,07,14,17,50,12.80
2012,07,14,17,51,12.80
2012,07,14,17,52,12.80
2012,07,14,17,53,12.80
2012,07,14,17,54,12.80
2012,07,14,17,55,12.80
2012,07,14,17,56,12.80
2012,07,14,17,57,12.80
2012,07,14,17,58,12.80
2012,07,14,17,59,12.80
2012,07,14,18,00,12.80
2012,07,14,18,01,12.80
2012,07,14,18,02,12.80
2012,07,14,18,03,12.80
2012,07,14,18,04,12.80
2012,07,14,18,05,12.80
2012,07,14,18,06,12.80
2012,07,14,18,07,12.80
2012,07,14,18,08,12.80
2012,07,14,18,09,12.80
2012,07,14,18,10,12.80
2012,07,14,18,11,12.80
2012,07,14,18,12,12.80
2012,07,14,18,13,12.80
2012,07,14,18,14,12.80
2012,07,14,18,15,12.80
2012,07,14,18,16,12.80
2012,07,14,18,17,12.80
2012,07,14,18,18,12.80
2012,07,14,18,19,12.80
2012,07,14,18,20,12.80
2012,07,14,18,21,12.80
2012,07,14,18,22,12.80
2012,07,14,18,23,12.80
2012,07,14,18,24,12.80
2012,07,14,18,25,12.80
2012,07,14,18,26,12.80
2012,07,14,18,27,12.80
2012,07,14,18,28,12.80
2012,07,14,18,29,12.70
2012,07,14,18,30,12.70
2012,07,14,18,31,12.70
2012,07,14,18,32,12.70
2012,07,14,18,33,12.70